Simultaneous Nadir Overpasses (SNOs) Predictions

Prediction of SNOs between NOAA-19 and NPP Satellite Orbit:

Table of predicted SNOs for the next 14.0 days since TLE Epoch: 7/12/2015
Index Date (NOAA-19) Time (NOAA-19) Lat,Lon (NOAA-19) SZA (NOAA-19 ) Date (NPP) Time (NPP) Lat,Lon (NPP) SZA (NPP ) Distance(km) Time Diff (sec)
1 07/23/2015 17:07:59 -81.04, 50.10 115.07 07/23/2015 17:09:02 -81.04, 50.08 115.10 0.61 63
2 07/23/2015 17:58:57 81.04,-142.27 64.89 07/23/2015 17:59:46 81.04,-142.41 64.88 2.37 49
3 07/23/2015 18:50:00 -81.03, 25.19 115.14 07/23/2015 18:50:31 -81.03, 25.01 115.13 3.04 31
4 07/23/2015 19:41:00 81.04,-167.94 64.93 07/23/2015 19:41:16 81.04,-167.84 64.90 1.76 16
5 07/23/2015 20:32:03 -81.03, -0.47 115.10 07/23/2015 20:32:01 -81.03, -0.42 115.11 0.97 2
6 07/23/2015
